Flag for Canada Weather past 2 weeks in Whitehorse, Yukon Territory, Canada

Now
52 °F

Light rain. More clouds than sun.


Feels Like: 52 °F
Forecast: 48 / 67 °F
Wind: No wind

Location: Withehorse

Current Time: Jul 30, 2014 at 8:44:28 PM

Latest Report: Jul 30, 2014 at 7:00 PM


Visibility: 25 mi

Pressure: 30.27 "Hg

Humidity: 82%

Dew point: 46 °F

Location of WhitehorseLocation

Historic Weather in Whitehorse — Graph

°F

Whitehorse temperature yesterday

Maximum temperature yesterday: 66 °F (at 4:00 PM)
Minimum temperature yesterday: 50 °F (at 5:00 AM)
Average temperature yesterday: 55 °F

Past Weeks' High & Low Weather Summary

 TemperatureHumidityPressure
High75 °F (Jul 15, 8:00 PM)94% (Jul 19, 5:00 AM)30.27 "Hg (Jul 19, 5:00 AM)
Low45 °F (Jul 22, 6:00 AM)27% (Jul 15, 8:00 PM)29.58 "Hg (Jul 19, 7:00 PM)
Average58 °F62%29.94 "Hg
* Reported Jul 15 7:00 PM — Jul 30 7:00 PM, Whitehorse, Weather by CustomWeather, © 2014

Note: Actual official high and low records may vary slightly from our data, if they occured in-between our weather recording intervals... More about our weather records

Advertising

Whitehorse weather history for previous 24 hours

 ConditionsComfort  
Time TempWeatherWind HumidityBarometerVisibility
7:00 PM
Jul 30
52 °FLight rain. More clouds than sun.No wind82%30.27 "Hg25 mi
6:00 PM52 °FCloudy.3 mph82%30.27 "Hg20 mi
5:00 PM52 °FSprinkles. Cloudy.2 mph82%30.25 "Hg15 mi
4:00 PM48 °FSprinkles. Mostly cloudy.5 mph94%30.25 "Hg10 mi
3:00 PM48 °FSprinkles. More clouds than sun.5 mph94%30.24 "Hg10 mi
2:20 PM50 °FSprinkles. Overcast.6 mph88%30.21 "Hg15 mi
1:00 PM50 °FPartly sunny.6 mph88%30.18 "Hg40 mi
12:07 PM52 °FPartly sunny.8 mph82%30.15 "Hg40 mi
11:00 AM52 °FPartly sunny.3 mph82%30.13 "Hg40 mi
10:00 AM50 °FPartly sunny.9 mph82%30.11 "Hg40 mi
9:00 AM50 °FPartly sunny.8 mph82%30.11 "Hg40 mi
8:00 AM48 °FPartly sunny.8 mph87%30.10 "Hg40 mi
7:00 AM48 °FPartly sunny.9 mph87%30.10 "Hg30 mi
6:47 AM48 °FPartly sunny.10 mph87%30.10 "Hg30 mi
6:00 AM48 °FLight rain. Mostly cloudy.8 mph94%30.09 "Hg40 mi
5:00 AM48 °FLight rain. Mostly cloudy.6 mph94%30.08 "Hg20 mi
4:00 AM48 °FLight rain. Mostly cloudy.7 mph94%30.06 "Hg5 mi
3:00 AM48 °FSprinkles. Overcast.8 mph94%30.06 "Hg5 mi
2:00 AM50 °FSprinkles. Overcast.7 mph94%30.05 "Hg5 mi
1:00 AM52 °FSprinkles. Mostly cloudy.7 mph82%30.03 "Hg10 mi
12:00 AM52 °FSprinkles. Mostly cloudy.13 mph88%30.02 "Hg10 mi
11:00 PM
Jul 29
54 °FMore clouds than sun.9 mph82%30.00 "Hg40 mi
10:00 PM55 °FMore clouds than sun.3 mph82%29.98 "Hg40 mi
9:00 PM57 °FMostly cloudy.9 mph77%29.98 "Hg40 mi
8:00 PM57 °FCloudy.8 mph72%29.98 "Hg40 mi
Weather by CustomWeather, © 2014

See weather overviewHow to use our weather pages